EW6672 Weather Reports


time (UTC)temp
C
wind
direction
speed
KPH
gust
KPH
rain 1hr
cm
rain 24hr
cm
rain mn
cm
humidity
%
barometer
mb
20181212071021 -8 0.0 0.0 0.00 0.00 0.00 93 918.0
20181212070020 -8 0.0 0.0 0.00 0.00 0.00 93 918.0
20181212065020 -8 0.0 0.0 0.00 0.00 0.00 94 917.8
20181212064019 -8 0.0 0.0 0.00 0.00 0.00 94 917.8
20181212063019 -8 0.0 0.0 0.00 0.00 0.00 93 917.7
20181212062019 -8 0.0 1.6 0.00 0.00 0.00 93 917.6
20181212061019 -8 0.0 0.0 0.00 0.00 0.00 93 917.6
20181212060020 -8 0.0 0.0 0.00 0.00 0.00 93 917.6
20181212055019 -8 0.0 0.0 0.00 0.00 0.00 93 917.5
20181212054019 -8 0.0 1.6 0.00 0.00 0.00 93 917.4
20181212053019 -8 0.0 0.0 0.00 0.00 0.00 93 917.4
20181212052020 -8 0.0 0.0 0.00 0.00 0.00 93 917.3
20181212051019 -8 0.0 0.0 0.00 0.00 0.00 92 917.2
20181212050019 -8 0.0 0.0 0.00 0.00 0.00 93 917.2
20181212045020 -8 0.0 0.0 0.00 0.00 0.00 93 917.1
20181212044019 -8 0.0 0.0 0.00 0.00 0.00 92 917.1
20181212043022 -8 0.0 0.0 0.00 0.00 0.00 92 917.1
20181212042019 -8 0.0 0.0 0.00 0.00 0.00 92 917.1
20181212041019 -7 0.0 0.0 0.00 0.00 0.00 91 916.9
20181212040020 -7 0.0 0.0 0.00 0.00 0.00 91 916.9
20181212035020 -7 0.0 0.0 0.00 0.00 0.00 91 916.9
20181212034019 -7 0.0 0.0 0.00 0.00 0.00 91 916.9
20181212033020 -7 0.0 0.0 0.00 0.00 0.00 90 916.8
20181212032020 -6 0.0 1.6 0.00 0.00 0.00 90 917.0
20181212031019 -6 0.0 0.0 0.00 0.00 0.00 91 917.0
20181212030020 -6 0.0 0.0 0.00 0.00 0.00 89 917.1
20181212025020 -6 0.0 1.6 0.00 0.00 0.00 90 917.0
20181212024019 -6 0.0 1.6 0.00 0.00 0.00 90 917.1
20181212023020 -6 0.0 1.6 0.00 0.00 0.00 89 917.0
20181212022020 -6 0.0 3.2 0.00 0.00 0.00 88 917.0
20181212021019 -6 0.0 0.0 0.00 0.00 0.00 89 917.0
20181212020019 -6 0.0 0.0 0.00 0.00 0.00 89 916.9
20181212015020 -6 0.0 0.0 0.00 0.00 0.00 87 917.0
20181212014020 -6 0.0 0.0 0.00 0.00 0.00 86 917.0
20181212013020 -5 0.0 1.6 0.00 0.00 0.00 86 916.9
20181212012020 -6 0.0 0.0 0.00 0.00 0.00 85 916.9
20181212011019 -5 0.0 1.6 0.00 0.00 0.00 85 916.9
20181212010019 -5 0.0 0.0 0.00 0.00 0.00 83 916.8
20181212005019 -5 0.0 0.0 0.00 0.00 0.00 83 916.7
20181212004020 -5 0.0 0.0 0.00 0.00 0.00 81 916.8
20181212003020 -5 0.0 0.0 0.00 0.00 0.00 81 916.7
20181212002019 -4 0.0 0.0 0.00 0.00 0.00 82 916.6
20181212001020 -4 0.0 0.0 0.00 0.00 0.00 81 916.6
20181212000019 -4 0.0 0.0 0.00 0.00 0.00 82 916.6
20181211235019 -5 0.0 0.0 0.00 0.00 0.00 83 916.7
20181211234019 -5 0.0 0.0 0.00 0.00 0.00 83 916.6
20181211233035 -4 0.0 0.0 0.00 0.00 0.00 79 916.7
20181211232020 -3 0.0 0.0 0.00 0.00 0.00 77 916.7
20181211231020 -3 0.0 3.2 0.00 0.00 0.00 76 916.7
20181211230019 -3 0.0 0.0 0.00 0.00 0.00 76 916.7
20181211225019 -3 0.0 3.2 0.00 0.00 0.00 76 916.8
20181211224019 -3 0.0 0.0 0.00 0.00 0.00 77 916.8
20181211223019 -3 0.0 0.0 0.00 0.00 0.00 77 916.9
20181211222023 -3 0.0 0.0 0.00 0.00 0.00 76 917.0
20181211221020 -2 0.0 1.6 0.00 0.00 0.00 75 917.1
20181211220019 -2 337 1.6 3.2 0.00 0.00 0.00 74 917.4
20181211215019 -2 337 1.6 4.8 0.00 0.00 0.00 76 917.4
20181211214020 -3 0.0 1.6 0.00 0.00 0.00 78 917.3
20181211213018 -3 0.0 1.6 0.00 0.00 0.00 77 917.3
20181211212020 -3 0.0 0.0 0.00 0.00 0.00 77 917.3
20181211211020 -3 0.0 0.0 0.00 0.00 0.00 76 917.4
20181211210019 -2 0.0 0.0 0.00 0.00 0.00 75 917.3
20181211205020 -2 0.0 1.6 0.00 0.00 0.00 75 917.2
20181211204020 -2 0.0 1.6 0.00 0.00 0.00 74 917.1
20181211203019 -2 0.0 3.2 0.00 0.00 0.00 72 917.1
20181211202019 -2 0.0 1.6 0.00 0.00 0.00 71 917.0
20181211201020 -2 292 1.6 6.4 0.00 0.00 0.00 72 917.0
20181211200019 -2 337 1.6 3.2 0.00 0.00 0.00 77 916.9
20181211195020 -3 0.0 1.6 0.00 0.00 0.00 80 916.9
20181211194020 -3 0.0 3.2 0.00 0.00 0.00 85 916.7
20181211193019 -5 0.0 3.2 0.00 0.00 0.00 88 916.6
20181211192020 -5 0.0 1.6 0.00 0.00 0.00 90 916.6
20181211191019 -5 0.0 3.2 0.00 0.00 0.00 90 916.6
20181211190019 -5 0.0 0.0 0.00 0.00 0.00 90 916.5
20181211185019 -5 0.0 0.0 0.00 0.00 0.00 89 916.6
20181211184020 -5 0.0 1.6 0.00 0.00 0.00 88 916.7
20181211183019 -5 0.0 0.0 0.00 0.00 0.00 89 916.7
20181211182020 -5 0.0 0.0 0.00 0.00 0.00 90 916.7
20181211181020 -5 0.0 3.2 0.00 0.00 0.00 89 916.7
20181211180019 -5 0.0 0.0 0.00 0.00 0.00 88 916.6
20181211175020 -5 0.0 0.0 0.00 0.00 0.00 87 916.6
20181211174019 -5 0.0 1.6 0.00 0.00 0.00 87 916.6
20181211173019 -5 0.0 1.6 0.00 0.00 0.00 86 916.4
20181211172020 -4 0.0 1.6 0.00 0.00 0.00 86 916.4
20181211171020 -4 0.0 0.0 0.00 0.00 0.00 84 916.4
20181211170019 -4 0.0 0.0 0.00 0.00 0.00 82 916.2
20181211165019 -3 0.0 0.0 0.00 0.00 0.00 80 916.1
20181211164020 -3 0.0 0.0 0.00 0.00 0.00 81 916.1
20181211163020 -3 0.0 0.0 0.00 0.00 0.00 79 915.9
20181211162020 -2 0.0 1.6 0.00 0.00 0.00 76 915.9
20181211161019 -2 0.0 1.6 0.00 0.00 0.00 76 915.9
20181211160019 -2 0.0 0.0 0.00 0.00 0.00 76 915.9
20181211155019 -2 0.0 0.0 0.00 0.00 0.00 73 915.7
20181211154019 -1 0.0 0.0 0.00 0.00 0.00 71 915.7
20181211153020 -1 0.0 0.0 0.00 0.00 0.00 68 915.7
20181211152020 0 0.0 1.6 0.00 0.00 0.00 65 915.8
20181211151021 0 0.0 1.6 0.00 0.00 0.00 62 915.8
20181211150019 0 0.0 3.2 0.00 0.00 0.00 62 915.8
20181211145020 0 0.0 0.0 0.00 0.00 0.00 63 915.7
20181211144020 0 0.0 0.0 0.00 0.00 0.00 59 915.8
20181211143020 1 0.0 3.2 0.00 0.00 0.00 54 915.8
20181211142020 1 45 1.6 4.8 0.00 0.00 0.00 53 915.7
20181211141019 1 45 1.6 6.4 0.00 0.00 0.00 51 915.6
20181211140020 2 67 1.6 6.4 0.00 0.00 0.00 51 915.6
20181211135019 2 90 1.6 6.4 0.00 0.00 0.00 52 915.6
20181211134020 2 135 1.6 4.8 0.00 0.00 0.00 49 915.5
20181211133020 3 135 1.6 6.4 0.00 0.00 0.00 50 915.4
20181211132019 3 90 1.6 6.4 0.00 0.00 0.00 47 915.3
20181211131019 3 45 1.6 8.0 0.00 0.03 0.00 49 915.3
20181211130020 3 292 3.2 11.3 0.00 0.03 0.00 47 915.2
20181211125020 3 22 1.6 6.4 0.00 0.05 0.00 47 915.2
20181211124019 3 22 3.2 9.7 0.00 0.05 0.00 46 915.1
20181211123020 3 22 3.2 11.3 0.00 0.08 0.00 45 915.1
20181211122020 3 22 4.8 9.7 0.00 0.08 0.00 45 915.0
20181211121019 3 90 1.6 8.0 0.00 0.08 0.00 46 914.9
20181211120020 3 90 3.2 11.3 0.00 0.15 0.00 47 914.9
20181211115020 3 135 4.8 14.5 0.00 0.15 0.00 47 914.8
20181211114019 3 112 3.2 12.9 0.00 0.18 0.00 47 914.9
20181211113020 3 112 4.8 12.9 0.00 0.18 0.00 47 914.9
20181211112020 3 90 3.2 11.3 0.00 0.20 0.00 51 915.0
20181211111019 3 112 4.8 12.9 0.00 0.23 0.00 51 915.0
20181211110019 3 292 3.2 12.9 0.00 0.25 0.00 49 915.0
20181211105019 3 90 1.6 8.0 0.00 0.28 0.00 49 915.1
20181211104019 2 270 3.2 9.7 0.00 0.33 0.00 49 915.1
20181211103019 2 67 1.6 8.0 0.00 0.38 0.00 50 915.2
20181211102020 2 270 1.6 8.0 0.00 0.43 0.00 51 915.1
20181211101020 2 135 3.2 9.7 0.00 0.46 0.00 49 915.0
20181211100019 3 135 3.2 9.7 0.00 0.48 0.00 49 915.1
20181211095020 2 90 3.2 8.0 0.00 0.53 0.00 49 915.1
20181211094019 2 90 3.2 8.0 0.00 0.56 0.00 49 915.0
20181211093020 2 90 4.8 11.3 0.00 0.61 0.00 52 915.1
20181211092020 2 112 4.8 9.7 0.00 0.64 0.00 53 915.2
20181211091019 2 112 3.2 12.9 0.00 0.69 0.00 53 915.4
20181211090021 2 90 3.2 8.0 0.00 0.74 0.00 54 915.4
20181211085019 2 135 3.2 11.3 0.00 0.76 0.00 52 915.2
20181211084019 2 112 4.8 14.5 0.00 0.79 0.00 53 915.2
20181211083019 1 45 3.2 11.3 0.00 0.84 0.00 54 915.2
20181211082019 1 90 3.2 11.3 0.00 0.86 0.00 55 915.2
20181211081019 1 112 3.2 11.3 0.00 0.89 0.00 58 915.1
20181211080020 1 112 4.8 12.9 0.00 0.91 0.00 59 915.2
20181211075019 1 45 3.2 12.9 0.00 0.91 0.00 61 915.1
20181211074019 0 135 4.8 9.7 0.00 0.94 0.00 62 915.0
20181211073020 0 112 6.4 19.3 0.00 0.94 0.00 63 914.9
20181211072020 0 135 1.6 9.7 0.00 0.94 0.00 63 914.7